www.pogodaiklimat.ru

Погода и климат >> Архив погоды >> Беларусь >> Полесская


ПОГОДА в Полесской

  • Прогноз погоды в Полесской
  • Монитор погоды в Полесской
  • Климат города

АРХИВ ПОГОДЫ в Полесской

Время (UTC), дата Ветер
(напр.,м/с)
 
Видим.   Явления Облачность Т
(С)
Тd
(С)
f
(%)
Тe
(С)
Тes
(С)
Комфортность P
(гПа)
Po
(гПа)
Тmin
(С)
Tmax
(С)
R
(мм)
R24
(мм)
S
(см)
09 14.11 СЗ 4 8000 м дымка 10 баллов +2.3 0.0 85 -3 -3 1019.0 1003.5
12 14.11 З 3 9000 м дождь 10 баллов +3.9 +0.4 78 0 0 1020.0 1004.5
15 14.11 З 3 8000 м дымка 10 баллов +3.6 +1.0 83 -0 -0 1022.0 1006.5
18 14.11 З 3 6000 м дымка 10 баллов +2.7 +1.4 91 -2 -2 1023.0 1007.4 +4.9
21 14.11 З 4 7000 м дымка 10 баллов +2.9 +0.1 82 -2 -2 1024.0 1008.4
00 15.11 ЮЗ 3 5000 м дымка 10 баллов +1.5 -0.3 88 -3 -3 1024.0 1008.3
03 15.11 ЮЗ 4 4600 м дымка 10 баллов +1.3 -0.8 86 -4 -4 1024.0 1008.3 +1.0
06 15.11 ЮЗ 5 9000 м дымка 10 баллов +1.5 -1.7 79 -4 -4 1024.0 1008.3 +0.9
09 15.11 ЮЗ 6
{10}
10 км 10 баллов +2.2 -0.6 82 -4 -4 1025.0 1009.4
12 15.11 ЮЗ 6
{10}
10 км 10 баллов +3.5 +0.6 81 -2 -2 1025.0 1009.4
15 15.11 ЮЗ 4 8000 м дымка 10 баллов +3.2 +1.7 90 -2 -2 1025.0 1009.4
18 15.11 ЮЗ 4 9000 м дымка 10 баллов +3.1 +1.5 89 -2 -2 1026.0 1010.4 +4.0
21 15.11 ЮЗ 5 8000 м дымка 10 баллов +3.4 +1.9 90 -2 -2 1026.0 1010.4
00 16.11 ЮЗ 4 7000 м дымка 10 баллов +3.6 +2.1 90 -1 -1 1026.0 1010.4
03 16.11 ЮЗ 4 7000 м дымка 10 баллов +3.6 +2.1 90 -1 -1 1026.0 1010.4 +3.0
06 16.11 ЮЗ 4 7000 м дымка 10 баллов +3.4 +2.1 91 -1 -1 1027.0 1011.4 +3.0
09 16.11 З 4 10 км 10 баллов +5.2 +2.7 84 +1 +1 1028.0 1012.5
12 16.11 З 2 10 км 10 баллов +6.4 +3.0 79 +4 +4 1028.0 1012.6
15 16.11 З 1 10 км 10 баллов +4.3 +2.6 89 +3 +3 1028.0 1012.4
18 16.11 В 1 200 м туман 10 баллов -0.8 -1.4 96 -3 -3 1028.0 1012.1 +6.6
21 16.11 Ю 1 200 м туман 10 баллов -1.3 -4.6 78 -3 -3 1028.0 1012.1
00 17.11 ЮВ 1 200 м туман 10 баллов -2.0 -2.3 98 -4 -4 1027.0 1011.1
03 17.11 Ю 2 1500 м туман 10 баллов +0.6 -0.3 94 -3 -3 1026.0 1010.2 -2.0
06 17.11 ЮВ 3 7000 м дымка 10 баллов +0.9 -0.3 92 -4 -4 1025.0 1009.3 -2.0
09 17.11 ЮВ 3 9000 м дымка 10 баллов +2.3 0.0 85 -2 -2 1024.0 1008.4
12 17.11 ЮВ 3 9000 м дымка 10 баллов +2.4 -1.2 77 -2 -2 1023.0 1007.4
15 17.11 ЮВ 2 8000 м дымка 10 баллов +0.1 -1.6 88 -4 -4 1023.0 1007.3
18 17.11 ЮВ 1 5000 м дымка 10 баллов -2.1 -2.9 94 -4 -4 1023.0 1007.1 +2.8
21 17.11 штиль 0 5000 м дымка 10 баллов -0.2 -1.0 94 -2 -2 1022.0 1006.3
00 18.11 штиль 0 6000 м дымка 10 баллов +0.7 -0.2 94 -1 -1 1022.0 1006.3
03 18.11 ЮВ 1 5000 м дымка 10 баллов +0.5 -0.4 94 -2 -2 1020.0 1004.3 -2.1
06 18.11 штиль 0 3200 м дождь 10 баллов +1.3 +0.7 96 0 0 1020.0 1004.4 -2.1
09 18.11 З 3 1800 м дождь 10 баллов +2.6 +1.7 94 -2 -2 1019.0 1003.5
12 18.11 ЮЗ 3 2100 м морось 10 баллов +2.9 +2.0 94 -1 -1 1017.0 1001.5
15 18.11 ЮЗ 2 1800 м дождь 10 баллов +2.9 +2.3 96 -0 -0 1016.0 1000.5
18 18.11 ЮЗ 2 1300 м дымка 10 баллов +2.8 +2.5 98 -1 -1 1014.0 998.6 +3.3 0.7
21 18.11 З 1 1200 м дождь 10 баллов +2.4 +2.3 99 +1 +1 1012.0 996.6
00 19.11 Ю 3 н/о дождь 10 баллов +2.2 +1.9 98 -2 -2 1010.0 994.6
03 19.11 Ю 4 1800 м дымка 10 баллов +2.2 +1.9 98 -3 -3 1008.0 992.6 +2.2
06 19.11 Ю 3 1900 м дымка 10 баллов +1.8 +1.2 96 -3 -3 1007.0 991.6 +1.1 0.4
09 19.11 ЮЗ 5 4200 м дождь 10 баллов +2.6 +1.6 93 -3 -3 1007.0 991.7
12 19.11 ЮЗ 5 10 км 10 баллов +3.6 +0.3 79 -1 -1 1007.0 991.7
15 19.11 ЮЗ 4 10 км 10 баллов +2.9 -0.0 81 -2 -2 1007.0 991.7
18 19.11 Ю 4 10 км 10 баллов +2.8 -0.1 81 -2 -2 1008.0 992.6 +4.0 0.3
21 19.11 Ю 5 10 км 10 баллов +2.6 -0.7 79 -3 -3 1008.0 992.6
00 20.11 Ю 4 10 км 10 баллов +1.8 -0.9 82 -3 -3 1007.0 991.6
03 20.11 Ю 4 9000 м дымка 10 баллов -0.1 -1.5 90 -6 -6 1008.0 992.5 -0.1
06 20.11 Ю 3 9000 м дымка 10 баллов -0.2 -1.3 92 -5 -5 1008.0 992.5 -1.0
09 20.11 Ю 3 6000 м 10 баллов +1.3 +0.1 92 -3 -3 1008.0 992.6
12 20.11 ЮЗ 3 8000 м дымка 10 баллов +1.9 +0.7 92 -3 -3 1007.0 991.6
15 20.11 СВ 1 8000 м дымка 10 баллов +1.2 +0.6 96 -1 -1 1008.0 992.6
18 20.11 Ю 1 8000 м дымка 10 баллов +0.5 +0.2 98 -2 -2 1008.0 992.5 +2.2 0.5
21 20.11 ЮЗ 1 7000 м дымка 10 баллов +0.4 +0.1 98 -2 -2 1009.0 993.5
00 21.11 З 2 8000 м дымка 10 баллов +0.4 -0.7 92 -3 -3 1010.0 994.5
03 21.11 З 3 8000 м дымка 10 баллов +0.2 -0.9 92 -5 -5 1010.0 994.5 +0.2

 

Местоположение метеостанции Полесская (Брестская область, Беларусь): широта 52.30 долгота 26.70 высота над уровнем моря 124 м.

В архиве по умолчанию представлена погода в Полесской за последнюю неделю. Архивные данные за месяц целиком и за предыдущие месяцы, начиная с января 2011 года, Вы можете получить, выбрав интересующий диапазон дат из раскрывающегося списка и нажав кнопку "Ввод!".

Внимание! Время в таблицах - всемирное. Для получения местного времени необходимо прибавить поправку, которая в Полесской равна 3 ч.

Смотрите также архив погоды в соседних городах и на ближайших метеорологических станциях:

Погода в Пинске (Брестская область, Беларусь) (48 км)
Погода в Ганцевичах (Брестская область, Беларусь) (53 км)
Погода в Житковичах (Гомельская область, Беларусь) (80 км)
Погода в Слуцке (Минская область, Беларусь) (99 км)
Погода в Ивацевичах (Брестская область, Беларусь) (101 км)
Погода в Барановичах (Брестская область, Беларусь) (105 км)
Погода в Сарнах (Ровенская область, Украина) (114 км)
Погода в Любешове (Волынская область, Украина) (120 км)
Погода в Столбцах (Минская область, Беларусь) (131 км)
Погода в Олевске (Житомирская область, Украина) (138 км)

Пояснения к столбцам:

Ветер - указаны скорость ветра в м/с - средняя за 10 мин, порывы в срок и между сроками (в фигурных скобках) и направление, откуда дует ветер: С - северный, СВ - северо-восточный, В - восточный, ЮВ - юго-восточный, Ю - южный, ЮЗ - юго-западный, З - западный, СЗ - северо-западный.
Видимость - горизонтальная дальность видимости в метрах или километрах. При видимости от 1 до 10 км при отсутствии осадков обычно наблюдается дымка, при ухудшении видимости до 1 км и менее - туман. В сухую погоду видимость может ухудшаться дымом, пылью или мглою.
Явления - указаны атмосферные явления, наблюдавшиеся в срок или в последний час перед сроком; фигурными скобками обозначены явления, наблюдавшиеся между сроками (за 1-3 часа до срока); квадратными скобками обозначены град или гололедные отложения с указанием их диаметра в мм.
Облачность - указаны через наклонную черту общая и нижняя облачность в баллах и высота нижней границы облаков в метрах; квадратными скобками обозначены формы облаков: Ci - перистые, Cs - перисто-слоистые, Cc - перисто-кучевые, Ac - высококучевые, As - высокослоистые, Sc - слоисто-кучевые, Ns - слоисто-дождевые, Cu - кучевые, Cb - кучево-дождевые. Подробнее классификацию облаков см. в Атласе облаков (PDF).
T - Температура воздуха - температура, измеренная на высоте 2 м над землей.
Td - Температура точки росы - температура, при понижении до которой содержащийся в воздухе водяной пар достигнет насыщения.
f - Относительная влажность воздуха - влажноcть воздуха, измеренная на высоте 2 м над землей.
Te - Эффективная температура - температура, которую ощущает одетый по сезону человек в тени. Характеристика душности погоды. При расчете учитывается влияние влажности воздуха и скорости ветра на теплоощущения человека.
Tes - Эффективная температура на солнце - температура, которую ощущает человек, с поправкой на солнечный нагрев. Характеристика знойности погоды. Зависит от высоты солнца над горизонтом, облачности и скорости ветра. Ночью, в пасмурную погоду, а также при ветре 12 м/с и более поправка равна нулю.
P - Атмосферное давление - приведенное к уровню моря атмосферное давление.
Po - Атмосферное давление - измеренное на уровне метеостанции атмосферное давление.
Tmin - Минимальная температура - минимум температуры воздуха на высоте 2 м над землей.
Tmax - Максимальная температура - максимум температуры воздуха на высоте 2 м над землей.
R - Количество осадков - Количество выпавших осадков за период времени, мм. При наведении курсора мыши на число - период времени, за который выпало указанное количество осадков.
R24 - Количество осадков - Количество выпавших осадков за 24 часа, мм.
S - Снежный покров - Высота снежного покрова, см. При наведении курсора мыши на число - состояние снежного покрова и степень покрытия местности в баллах.